Location: Stockholm
(59.3330°N, 18.0500°E)
Time: 13:05:18
(UTC+01:00)

Envisat - Pass Details

Date: 01 December 2022
Orbit: 763 x 765 km, 98.2° (Epoch: 29 January)

Event Time Altitude Azimuth Distance (km) Brightness Sun altitude
Rises 03:11:19 0° 20° (NNE) 3,250 6.7 -36.9°
Reaches altitude 10° 03:13:58 10° 32° (NNE) 2,318 6.0 -36.5°
Maximum altitude 03:18:20 28° 91° (E) 1,419 4.8 -36.0°
Enters shadow 03:18:31 28° 95° (E) 1,421 4.8 -36.0°
